Wind_Speed
6 2 8 14 14 16 8 4 10 9 9 10 19 20 23 21 18 17 15 15 14 14 17 27 30 28 28 39 36 31 24 34 31 27 23 21 20 16 19 13 8 2 11 9
5 9 16 16 17 12 7 8 11 8 8 10 14 17 20 21 21 21 19 16 17 15 16 23 27 30 34 36 33 30 29 25 30 27 23 20 20 13 12 12 7 11 16 12
9 14 19 18 15 1 8 2 4 13 6 6 13 8 16 19 16 19 20 19 18 20 19 17 23 28 33 35 36 34 32 29 28 27 23 22 20 16 13 15 13 17 15 11
11 19 16 14 6 5 6 7 8 14 7 4 7 5 7 11 20 22 21 20 19 19 19 18 23 25 30 34 37 36 35 33 29 28 23 25 22 19 17 15 7 11 19 12
12 11 12 12 5 6 8 5 6 2 1 1 5 5 14 9 9 20 22 22 21 21 23 21 25 30 32 33 36 37 35 33 31 29 30 27 24 21 19 17 17 12 20 21
12 10 8 6 5 9 9 2 5 6 4 5 11 8 8 13 16 16 21 23 23 22 22 22 32 31 31 32 36 37 37 36 33 32 32 29 25 24 18 10 22 13 6 19
10 14 10 6 6 7 6 6 1 3 2 7 11 3 8 18 15 15 19 24 20 24 22 21 21 28 30 32 35 37 39 38 36 34 31 31 29 24 21 17 17 13 13 17
7 8 9 7 7 9 9 7 6 7 4 8 10 7 5 8 14 9 10 13 17 23 22 24 23 31 34 33 34 38 40 37 37 34 33 30 30 32 26 20 17 14 10 18
9 9 9 6 6 7 7 5 7 3 6 3 1 7 5 9 8 7 8 8 10 22 21 23 24 33 33 34 32 37 37 35 36 36 32 27 26 25 22 20 18 16 11 7
7 5 10 9 7 9 9 8 1 3 4 5 3 5 5 7 7 7 6 3 2 11 18 20 20 32 35 34 32 34 34 35 35 29 22 21 21 22 19 15 17 11 15 11
16 5 12 7 10 10 5 2 3 4 5 4 3 5 3 8 7 8 7 3 8 10 4 18 12 11 25 24 11 13 16 14 26 25 2 11 19 13 14 11 16 22 21 12
15 3 7 11 8 14 10 10 8 5 9 2 6 6 8 9 9 9 7 7 9 12 13 11 22 32 23 14 6 6 5 24 27 20 1 42 25 11 14 21 28 41 23 12
10 7 7 10 4 8 13 9 7 5 3 4 3 4 3 9 9 9 10 9 10 9 14 14 19 23 23 17 13 25 32 21 25 17 39 37 42 18 33 36 29 22 11 12
12 8 8 9 7 7 7 8 6 7 3 5 4 8 9 9 10 8 8 9 9 13 14 14 14 17 21 11 12 15 18 19 22 21 23 29 21 22 18 24 11 12 16 19
16 9 8 9 12 9 8 16 12 10 8 7 8 11 6 9 10 8 8 9 10 14 14 13 9 10 18 8 6 16 15 11 26 25 24 20 19 14 6 8 12 14 14 17
8 6 8 5 12 11 13 12 21 17 9 4 16 13 13 8 9 9 8 9 16 16 15 15 15 14 13 12 11 18 19 16 16 18 13 8 5 3 5 8 13 16 17 17
10 7 6 6 8 6 10 9 7 12 10 8 7 8 13 9 9 8 8 11 18 18 17 14 11 14 20 20 20 18 17 16 16 14 13 12 11 10 10 12 14 17 19 21
7 8 5 5 3 8 7 6 8 13 17 7 16 12 11 11 7 9 9 15 17 19 17 16 20 21 23 20 18 17 15 15 16 16 16 14 12 12 15 16 18 21 21 20
9 6 3 6 6 5 9 16 5 4 2 25 21 19 16 14 17 11 14 15 17 16 18 23 26 26 21 18 15 15 13 14 14 13 12 14 17 19 20 21 22 20 21 23
10 10 7 4 6 14 10 10 10 4 4 15 21 20 23 16 7 4 12 16 14 20 22 23 25 23 20 15 13 13 15 17 18 18 18 18 19 20 20 20 21 23 23 23
4 4 9 4 4 6 4 1 4 8 9 15 21 22 19 7 9 14 15 13 19 24 25 25 22 21 18 16 15 17 17 18 16 19 19 18 20 20 19 21 23 26 27 24
5 6 4 3 5 7 4 4 5 6 12 15 15 13 18 22 19 18 15 13 14 16 21 22 23 21 17 13 13 13 14 12 15 17 17 18 19 22 24 21 23 26 22 23
5 7 5 5 8 4 3 9 7 17 18 14 23 22 23 20 19 17 14 13 14 20 22 23 22 17 13 11 10 10 9 12 18 18 20 20 22 19 21 24 21 21 22 20
5 6 5 5 1 7 11 8 7 15 21 20 23 23 23 22 18 16 14 12 13 20 18 17 15 17 17 12 8 9 10 14 16 16 18 22 20 20 22 19 20 23 21 18
11 9 7 4 8 9 9 7 10 20 20 21 19 21 22 22 16 15 13 12 17 18 16 16 16 13 12 12 15 12 13 14 15 15 15 16 17 19 20 20 20 21 21 13
1 6 6 5 7 9 3 7 17 19 17 19 25 20 18 21 19 16 12 18 18 16 17 17 14 11 10 13 13 15 14 14 12 12 14 15 18 20 18 21 21 19 22 9
Wind_Direction
225 199 234 239 240 243 240 289 158 166 171 129 149 160 168 172 164 164 164 164 167 170 172 171 175 182 173 177 183 184 185 198 196 196 205 216 228 233 239 247 243 8 347 333
274 225 246 252 258 257 297 298 141 154 178 123 157 170 170 173 172 167 165 170 171 174 167 176 181 180 181 183 186 187 199 193 196 199 206 216 223 237 235 238 204 211 235 323
207 236 234 247 263 7 281 279 156 153 161 129 162 172 170 182 172 169 169 172 176 176 172 179 184 185 184 184 190 194 200 203 204 205 212 225 234 246 239 247 225 185 198 188
220 243 254 249 241 190 278 266 277 146 124 177 164 201 218 191 173 175 173 177 180 179 173 177 183 186 186 193 196 200 204 209 212 213 213 222 227 233 233 237 249 220 200 211
242 234 244 252 184 207 252 329 4 100 122 196 255 100 204 171 175 184 177 182 183 180 176 180 183 188 192 193 198 205 208 210 215 215 217 219 227 233 242 251 244 238 214 215
231 242 235 218 173 229 253 238 9 19 28 345 260 176 187 184 194 186 179 186 185 179 178 179 183 184 192 195 197 202 208 212 213 217 221 223 228 236 240 222 213 215 250 212
235 246 239 202 212 246 251 87 343 350 333 226 250 226 202 190 187 189 186 189 188 176 174 176 180 183 191 196 189 197 205 207 213 215 223 221 219 226 230 227 212 204 176 177
202 257 234 193 183 200 230 160 162 196 173 245 254 185 250 170 163 149 182 179 177 176 175 178 183 187 185 198 199 192 199 201 209 212 218 228 231 230 232 229 230 230 200 180
188 239 248 181 172 201 257 189 214 312 296 11 257 20 27 123 149 144 131 134 178 177 179 181 184 184 188 193 200 201 196 196 207 211 214 221 236 245 244 238 241 255 264 180
251 215 222 205 201 242 152 203 267 326 246 283 232 142 200 136 121 109 90 55 32 183 182 182 187 187 188 192 196 202 199 191 205 204 203 221 235 250 247 254 259 263 256 242
240 174 275 220 195 187 275 248 245 164 153 183 88 288 135 109 116 115 84 105 69 66 344 187 174 76 74 77 68 50 33 343 210 202 158 282 248 263 224 281 288 296 267 259
224 193 236 234 227 176 185 221 190 134 284 251 156 230 155 129 115 99 98 68 57 83 64 75 120 120 117 176 23 337 292 312 319 59 115 275 255 267 298 249 245 245 253 257
206 231 252 301 316 187 192 209 199 167 102 254 149 236 158 108 87 84 85 70 60 96 81 89 95 95 98 89 355 322 322 313 298 149 182 225 219 225 237 244 250 246 258 279
185 182 176 223 210 179 171 207 221 178 174 237 191 165 165 134 119 96 70 65 66 122 101 98 102 107 113 99 355 325 310 271 248 185 177 186 202 209 217 231 264 298 306 308
182 193 187 233 245 263 214 197 206 217 211 162 225 167 164 149 132 132 108 79 66 101 99 107 116 103 121 169 251 83 109 177 204 146 145 149 179 203 226 306 311 307 315 320
169 193 163 261 253 247 261 227 203 212 230 207 134 139 153 147 111 102 105 91 84 100 107 108 124 124 151 184 143 123 134 128 100 86 87 95 82 18 337 315 316 324 330 336
154 137 137 226 259 287 287 247 247 205 209 196 169 178 131 118 117 131 124 102 105 113 118 115 111 102 99 90 89 84 81 77 69 72 67 48 29 12 354 343 340 341 339 327
142 132 134 187 170 251 254 277 283 209 194 130 107 112 102 110 101 73 74 106 105 117 111 105 103 98 90 84 78 79 68 56 63 46 31 17 4 350 342 345 346 339 332 332
146 137 153 139 189 260 262 260 281 231 209 131 121 118 113 110 84 40 83 95 105 106 109 106 105 100 90 80 76 73 63 73 56 42 27 8 1 356 353 347 341 341 336 329
173 155 142 140 185 217 244 261 244 163 102 152 132 135 134 128 113 155 108 102 103 105 103 104 103 98 90 80 76 67 68 50 35 18 3 357 354 348 342 336 332 330 331 324
144 148 180 195 185 244 243 285 168 144 206 159 142 142 142 126 132 135 111 102 101 102 105 106 101 90 78 72 64 57 46 33 10 357 354 349 342 339 336 328 323 323 327 322
163 139 174 162 183 264 192 133 166 182 122 123 120 118 113 118 124 117 110 106 96 97 105 111 97 90 81 70 64 58 43 15 1 354 350 342 336 338 337 335 335 338 334 333
194 167 171 151 224 260 14 142 135 122 126 129 125 126 125 124 119 121 123 103 94 89 83 97 99 89 72 62 54 44 31 8 356 353 351 347 345 349 346 347 350 345 348 358
229 155 128 90 323 121 115 76 80 120 128 130 128 128 127 127 128 118 107 99 94 96 90 88 83 88 81 67 52 60 31 1 0 351 344 347 351 351 353 352 356 353 7 5
221 170 130 71 53 72 28 68 105 115 116 119 122 123 126 122 116 113 105 100 98 103 109 102 90 86 77 69 78 44 16 7 1 347 348 347 344 341 344 357 3 4 9 31
325 162 141 161 185 112 83 95 111 116 119 116 117 112 110 111 110 108 105 111 116 111 106 100 88 79 71 78 47 16 20 10 354 349 352 348 342 352 2 7 356 17 17 41
Height
755 779 790 770 757 751 753 754 764 756 741 762 772 779 777 773 777 785 790 793 797 800 802 806 811 815 818 822 824 827 829 830 832 834 834 835 836 840 839 842 848 850 849 841
772 788 754 743 742 746 746 757 762 751 739 758 772 777 768 768 772 772 782 788 790 794 798 801 806 809 812 815 819 822 825 828 830 831 832 832 834 838 838 837 839 844 847 845
781 759 737 742 747 746 751 758 758 764 746 745 766 787 777 765 763 766 769 774 780 784 791 796 799 803 807 810 814 818 821 824 826 827 829 831 833 834 835 834 835 836 837 831
764 739 745 743 745 742 768 734 737 748 772 801 760 830 790 771 769 765 767 770 772 777 782 787 792 797 802 806 810 813 816 819 823 827 829 830 830 832 832 832 833 833 832 831
762 747 749 751 741 733 755 730 740 741 765 769 771 809 780 771 781 770 763 762 762 766 772 779 783 789 795 800 804 807 812 817 821 823 823 824 826 826 828 832 832 833 835 834
743 718 727 729 722 727 726 737 744 754 775 821 784 792 796 780 766 760 754 752 751 757 763 769 775 782 788 793 797 802 805 809 814 817 821 823 826 827 827 824 824 827 829 831
744 738 721 715 740 729 737 769 818 826 828 831 772 781 780 749 744 742 744 745 743 747 755 764 769 773 781 783 785 791 796 799 805 812 818 820 822 822 824 826 825 823 822 822
776 781 734 715 735 755 755 767 818 836 824 812 758 795 772 731 728 729 727 732 734 742 747 753 759 764 766 777 780 779 782 792 799 807 812 822 825 823 823 823 823 824 823 824
768 766 715 711 714 728 753 773 752 787 781 801 772 762 741 732 735 732 731 730 736 737 741 747 752 755 762 766 775 776 778 791 798 802 810 819 825 832 829 827 830 828 826 823
736 770 724 715 712 717 740 734 783 793 818 818 788 783 790 759 749 741 737 734 732 735 736 743 746 753 755 761 769 776 783 785 793 804 813 818 825 831 832 829 830 825 824 822
722 749 744 719 736 749 748 759 756 770 786 812 821 811 747 753 747 745 737 736 738 740 738 738 747 767 769 778 793 792 799 804 794 801 819 824 825 819 822 827 830 829 827 818
712 736 765 747 712 705 726 744 754 798 797 785 797 806 739 739 737 738 740 737 738 745 747 754 755 764 782 791 789 783 777 792 802 783 819 839 829 821 823 829 829 822 820 815
711 741 771 758 730 714 731 732 738 748 765 787 803 799 739 738 742 741 745 743 743 754 757 758 763 774 785 782 780 785 784 786 803 806 813 817 818 820 819 828 827 822 815 810
694 729 749 768 754 730 740 731 729 748 785 781 780 772 757 751 748 744 746 745 747 757 764 769 773 775 774 775 773 781 784 785 795 812 816 817 819 821 823 824 819 811 807 804
691 738 728 723 717 718 722 724 729 747 753 773 762 762 758 752 751 748 745 746 752 761 769 777 779 781 782 782 786 787 790 800 819 816 815 814 820 820 818 813 810 809 802 798
685 729 717 731 712 714 725 714 716 722 730 733 742 759 734 739 739 746 748 751 763 771 773 779 786 790 794 795 796 796 802 809 808 804 807 812 813 811 810 809 806 799 796 792
697 720 733 750 724 724 749 722 715 714 716 724 754 741 732 747 748 749 749 753 764 774 778 780 784 790 794 798 799 801 801 801 800 801 805 805 803 804 804 802 798 794 790 790
699 712 728 748 729 772 717 693 696 702 702 708 722 733 739 744 747 745 745 754 764 772 778 780 785 791 795 797 799 801 801 802 802 802 802 803 804 803 800 795 791 789 789 787
675 703 732 753 757 733 714 700 706 708 714 705 722 733 737 738 744 761 754 758 766 772 779 782 788 793 796 799 801 802 803 805 806 806 805 803 799 795 791 788 789 790 788 786
673 686 717 738 756 761 720 691 678 684 747 706 708 724 731 739 775 778 763 763 771 774 777 782 788 793 797 800 801 801 802 801 800 799 798 795 793 792 793 793 791 788 786 783
703 707 725 734 739 724 688 677 671 734 744 709 704 717 730 747 750 761 761 768 770 773 780 785 789 792 795 797 798 799 799 800 800 798 797 797 797 795 793 790 788 784 781 778
701 719 727 723 738 744 672 678 707 703 699 704 716 726 738 744 753 756 764 769 770 776 783 788 792 797 800 801 802 804 805 806 805 803 801 799 796 793 791 788 785 782 779 776
701 692 709 707 711 687 674 684 684 685 699 708 711 721 731 746 754 760 766 769 775 782 788 792 795 799 802 803 804 805 806 804 803 801 800 798 796 793 791 787 785 782 778 775
669 664 694 699 691 688 684 683 685 686 696 705 711 717 728 744 753 761 766 773 780 787 792 795 798 801 804 806 806 806 806 805 805 804 801 798 797 793 790 788 785 781 778 774
664 666 685 698 696 692 691 686 689 695 700 708 715 724 735 743 755 762 772 778 785 791 795 798 801 804 806 806 807 808 807 806 805 804 802 800 796 793 790 787 785 782 778 776
660 667 684 712 694 695 699 692 692 699 706 712 719 735 743 745 756 766 776 783 789 794 798 800 803 805 807 807 808 808 808 807 807 805 802 800 797 793 791 788 785 784 782 778